Location: Observatoire
(46.1952°N, 5.3391°E)
Time: 06:44:44
(UTC+01:00)

Altair - Pass Details

Date: 20 February 2026
Orbit: 1502 x 1682 km, 47.2° (Epoch: 5 March)

Event Time Altitude Azimuth Distance (km) Brightness Sun altitude
Rises 11:23:29 0° 292° (WNW) 4,725 9.7 29.6°
Reaches altitude 10° 11:26:48 10° 284° (WNW) 3,764 9.3 29.8°
Maximum altitude 11:35:11 36° 223° (SW) 2,345 9.1 30.4°
Drops below altitude 10° 11:43:50 10° 161° (SSE) 3,876 11.2 30.9°
Sets 11:47:20 0° 154° (SSE) 4,881 11.3 31.1°
